sat.trackr.live / text

‹ back to catalog

JILIN-1 GAOFEN 03D48

NORAD 54695 · 2022-167P

PAYLOAD ACTIVE UNKNOWN

§ Identity

Operator
Country
PRC
Launch date
2022-12-09
Launch site
SEAL
Launch vehicle
Mass (kg)
RCS (m²)

External: N2YO · Heavens-Above · Gunter

§ Orbital elements

Epoch: 2026-09-20T22:56:10.061664Z

Period
93.69 min
Inclination
97.6953°
Eccentricity
0.0007043
Mean motion
15.36969645 rev/d
Perigee alt
450.3 km
Apogee alt
459.9 km
Semi-major
6,833.2 km
B*
1.9847e-4
RAAN
77.7419°
Arg perigee
129.1096°
Mean anomaly
231.0775°
Rev number
21,009

§ Raw data

JILIN-1 GAOFEN 03D481 54695U 22167P   26263.95567201  .00007093  00000+0  19847-3 0  99912 54695  97.6953  77.7419 0007043 129.1096 231.0775 15.36969645210098

JSON: /api/v1/satellites/54695 · /tle

For live sub-satellite position, see the globe view (requires WebGL).

§ Visibility from observer

Set your observer location to see the next 7 days of passes ≥ 10°. The values pass through the URL so the page stays shareable.

No JS? Fill the form by hand. The geolocation button needs JavaScript.

§ Radio — SatNOGS DB

ModeDescriptionDownlinkUplink
FM Jillin Mysterious Pip 1.616 GHz

1 transmitter · refreshed weekly from db.satnogs.org